Theta_e
354 351 349 347 345 345 345 344 342 340 333 325 319 316 316 313 313 317 320 324 325 322 318 320 318 314 313 316 321 325 328 329 329 328 325 326 328 329 331 334 336 337 337
352 349 347 344 344 343 340 336 331 324 320 317 316 313 307 309 313 316 317 318 317 315 315 311 306 306 308 312 315 319 323 322 322 322 324 325 327 327 328 333 334 336 336
348 345 343 340 342 337 333 327 323 317 315 314 311 305 305 312 313 313 312 309 307 309 305 303 303 304 307 311 313 317 319 320 321 322 321 321 323 323 325 327 330 330 330
346 344 344 342 337 333 328 324 317 315 312 311 307 305 309 313 313 315 311 310 308 308 306 305 305 304 305 309 312 319 318 317 318 318 319 319 319 320 320 323 325 326 326
346 343 342 339 335 331 326 320 313 311 308 305 304 305 309 313 315 315 313 313 312 311 308 306 307 308 306 311 315 317 316 316 317 317 317 318 317 314 313 314 317 320 325
343 343 340 336 333 329 325 316 311 308 305 305 306 307 310 314 315 314 315 315 314 312 310 308 309 310 310 312 314 317 314 313 314 314 312 312 311 311 309 310 311 313 317
343 341 337 335 333 328 319 312 308 308 307 306 306 308 311 311 312 313 315 314 316 313 311 310 311 311 312 311 312 313 313 313 312 313 312 312 312 310 310 309 308 307 315
340 338 336 335 330 320 313 309 308 308 309 307 310 312 311 310 310 308 309 313 315 314 312 311 311 310 310 311 312 313 312 311 313 313 312 312 313 312 310 310 308 308 311
339 338 336 334 324 314 311 309 309 308 309 310 314 314 314 314 313 312 309 310 315 313 313 312 311 311 311 310 310 311 310 310 309 310 309 310 312 311 309 309 308 308 307
339 338 335 327 317 313 310 309 309 315 317 316 316 318 318 316 314 313 311 310 313 314 314 311 311 311 311 311 311 311 311 311 310 310 310 310 309 309 308 309 309 307 307
339 336 330 320 314 311 310 311 314 317 318 319 318 318 318 318 318 315 313 312 312 311 311 310 311 311 312 312 312 312 312 311 311 309 309 309 310 309 309 309 309 307 307
338 333 324 316 314 311 311 310 316 319 318 318 318 318 318 319 318 317 314 312 312 312 312 311 311 314 314 313 312 312 311 311 311 311 311 308 308 309 309 310 309 307 307
336 328 320 315 313 312 310 313 318 318 318 320 320 319 318 317 317 316 314 313 313 313 313 312 312 313 313 313 313 312 312 312 312 312 311 308 306 307 309 310 309 307 307
332 324 317 316 314 313 312 314 316 318 320 319 317 316 316 316 316 315 315 315 315 315 315 315 314 314 312 313 313 313 313 312 312 312 311 308 307 308 309 309 308 307 307
328 321 316 315 313 312 316 315 319 319 318 315 313 314 313 315 315 316 316 316 315 315 315 315 315 315 315 314 313 313 314 313 312 311 311 309 308 307 307 307 307 307 306
325 320 314 313 313 317 317 319 320 317 314 316 316 317 317 317 317 317 317 316 314 314 315 315 316 316 315 316 315 314 314 313 311 312 311 309 308 308 308 308 307 306 302
325 316 311 311 317 315 317 318 317 316 317 318 317 317 317 317 317 317 317 316 316 315 315 314 316 315 314 316 313 313 314 312 311 310 312 309 309 308 306 305 302 300 300
320 312 310 313 313 317 318 319 319 319 319 319 319 319 319 319 319 318 317 317 317 317 317 316 316 315 314 315 315 312 312 312 311 311 311 308 306 305 303 300 299 301 301
313 311 312 315 316 318 319 319 319 319 320 320 319 319 320 319 319 319 319 318 318 314 314 314 315 315 314 314 314 314 312 310 310 309 308 306 304 304 302 300 300 302 302
312 315 318 319 319 319 319 319 319 320 319 319 320 320 320 319 319 318 317 316 314 313 312 313 314 315 314 315 311 309 309 309 307 305 304 304 305 304 303 300 300 301 301
316 319 319 319 319 318 318 320 320 319 319 320 319 320 320 318 318 316 315 313 312 312 312 311 311 310 309 307 307 306 306 305 304 304 304 305 305 304 303 301 300 300 301
319 320 320 318 318 318 320 320 320 319 319 320 320 319 318 318 317 315 313 312 311 311 310 309 308 307 307 306 305 304 304 304 304 304 305 305 305 304 303 302 300 300 300
320 320 319 318 317 317 318 317 317 318 319 320 320 319 316 316 315 313 312 311 310 309 308 307 307 306 305 305 304 304 305 305 305 305 305 305 304 304 303 301 300 300 301
320 319 317 319 320 320 319 319 319 320 320 320 319 318 317 314 313 312 311 310 310 308 307 307 306 305 304 304 304 305 305 305 305 304 304 303 304 303 300 300 300 301 303
318 319 320 321 321 321 321 321 321 321 320 319 319 316 313 313 312 311 310 309 308 307 307 306 305 305 304 304 304 304 305 305 304 304 304 303 302 300 301 301 301 302 303
319 319 321 321 322 321 321 320 320 318 317 317 314 313 313 312 311 310 310 309 308 307 306 305 305 303 302 303 303 304 304 304 304 303 302 301 300 301 301 301 301 302 302
Wind_Speed
17 17 16 14 14 14 13 13 13 13 11 11 10 7 6 5 3 3 2 3 5 5 6 7 9 10 9 8 7 7 8 7 7 10 10 9 9 9 10 12 14 15 17
20 17 13 12 13 12 10 10 9 8 8 6 4 3 2 1 2 1 0 0 4 4 5 6 7 8 7 5 3 2 1 4 3 4 6 7 6 8 8 8 8 10 14
21 16 16 14 11 10 8 6 5 4 3 2 1 1 2 4 4 4 5 5 4 5 7 7 9 9 8 8 6 5 5 8 5 4 6 9 10 9 9 11 9 6 7
21 19 16 13 11 7 5 4 4 3 2 2 2 3 5 5 5 6 9 13 12 11 11 10 11 13 13 12 11 9 9 9 9 7 7 10 12 11 12 8 9 9 8
22 20 15 12 9 7 5 5 5 2 3 4 4 6 6 5 6 7 9 11 12 12 13 11 12 14 13 12 12 11 8 9 9 10 11 11 16 19 19 18 13 10 5
23 18 16 13 11 9 7 7 7 8 8 8 8 8 7 5 5 6 4 4 8 11 13 12 13 13 13 13 11 9 10 10 10 12 12 12 14 19 20 20 20 18 14
21 20 17 13 10 10 9 10 10 10 10 9 9 9 7 4 3 2 1 1 2 6 10 9 11 11 10 9 8 7 7 10 10 10 11 12 13 16 19 20 22 20 14
24 22 18 13 12 12 11 12 12 12 12 13 13 13 11 9 8 5 2 2 3 2 4 5 5 7 8 8 7 5 7 9 9 8 10 11 10 12 14 16 20 18 10
24 20 16 14 14 15 16 14 13 15 15 16 14 13 11 9 8 9 8 3 2 3 0 5 3 3 6 7 7 6 8 11 8 8 10 10 8 11 13 13 18 19 20
22 19 16 15 14 15 17 16 15 15 13 13 11 9 7 5 2 4 6 7 1 2 4 5 3 1 3 3 4 4 7 10 9 13 12 12 10 7 10 12 14 20 19
19 18 16 14 14 15 17 16 16 14 13 12 11 10 8 6 4 3 3 2 3 3 4 5 3 4 5 4 4 5 8 10 9 11 12 17 9 9 10 10 10 14 19
20 19 17 15 16 18 18 17 17 15 13 11 9 8 8 8 9 8 7 5 4 5 6 6 2 3 7 9 7 7 8 8 11 13 16 18 14 10 10 10 6 10 14
22 19 16 17 18 18 18 19 19 17 13 10 9 7 7 6 8 8 8 6 6 6 6 6 5 7 6 5 7 7 9 11 14 13 15 15 16 13 10 7 7 11 14
21 19 18 18 18 17 17 17 19 16 12 10 10 9 8 8 6 6 7 6 7 9 9 9 10 10 11 12 13 12 13 14 16 13 15 12 15 13 11 11 14 17 21
21 19 18 18 20 18 18 19 18 14 11 9 7 6 6 5 5 8 8 10 11 12 13 13 13 13 12 13 17 18 14 11 14 15 14 13 14 15 15 17 18 21 26
20 19 19 21 22 20 20 18 16 15 13 11 8 8 8 8 9 10 12 15 16 17 18 17 18 20 17 14 12 11 10 12 14 15 15 15 14 15 16 17 21 26 26
18 18 21 22 22 22 23 20 17 16 14 11 12 13 15 15 15 17 18 18 19 22 24 23 22 20 13 11 11 12 15 15 13 18 17 15 15 14 19 23 23 20 18
15 16 20 21 20 22 21 18 16 14 15 13 13 16 17 19 22 24 23 22 23 24 23 20 20 17 15 13 13 15 17 15 14 16 15 15 17 20 21 20 17 17 17
18 19 21 21 21 21 19 17 17 16 15 13 14 14 14 14 17 20 23 25 24 22 20 20 18 18 17 15 17 18 14 14 14 14 15 17 18 17 19 18 16 15 17
21 26 24 20 19 17 15 15 15 12 13 15 18 17 14 16 15 14 16 19 21 20 18 18 18 18 17 16 16 15 15 12 13 15 17 15 13 16 20 18 15 16 17
25 27 22 18 17 14 14 15 14 14 13 11 10 14 14 9 15 20 18 19 19 18 17 16 15 15 15 15 15 14 13 14 15 15 12 12 13 17 20 19 18 17 19
24 22 19 17 16 15 13 15 16 16 14 16 17 16 16 16 16 18 18 18 18 18 16 15 14 14 15 15 14 13 12 12 15 12 11 13 16 21 23 21 20 19 19
23 19 15 15 16 16 16 16 18 17 20 20 18 18 17 18 19 17 18 17 15 15 15 14 15 17 18 17 14 12 13 13 13 14 15 17 20 25 25 24 21 20 19
22 17 13 8 10 13 16 18 19 17 18 19 19 18 19 16 15 16 16 15 15 15 14 14 17 18 18 15 14 15 15 15 15 16 18 21 25 27 24 21 20 19 19
20 15 10 5 4 4 6 8 9 13 15 15 19 18 14 14 15 15 15 13 13 14 14 16 18 19 18 18 18 18 16 17 18 20 22 25 26 23 21 22 20 19 18
19 12 6 7 8 6 9 10 8 8 13 16 16 15 15 16 17 17 14 15 14 14 16 18 21 18 15 16 14 15 16 18 21 23 25 24 21 21 21 22 21 21 21
Wind_Direction
205 211 217 216 224 224 228 239 250 261 273 283 289 298 297 281 272 273 247 232 272 299 313 315 320 320 308 293 280 276 275 271 268 279 303 300 303 297 272 274 276 269 262
201 200 197 202 202 212 215 225 243 264 277 283 296 306 280 171 107 108 100 234 298 313 328 351 2 10 357 338 328 257 325 354 347 337 336 325 336 333 316 301 286 283 283
189 189 186 185 194 201 218 238 260 269 272 262 324 30 156 138 103 80 59 64 78 70 53 38 36 37 42 50 47 91 88 41 27 9 342 344 348 321 290 278 289 304 295
185 194 196 193 197 213 237 266 272 250 199 170 140 128 139 123 111 93 86 78 79 70 53 50 48 46 46 46 48 54 44 39 44 41 33 23 15 7 5 335 288 277 292
195 194 192 195 207 219 242 264 248 203 166 152 141 138 141 134 115 109 98 83 73 60 52 54 53 48 47 51 56 67 58 38 39 42 39 28 16 4 1 354 343 343 325
199 195 193 199 208 230 241 223 200 171 152 132 128 129 136 137 110 111 115 88 74 61 53 65 63 58 57 51 52 57 48 44 44 49 43 34 27 25 22 17 11 8 358
197 192 191 199 217 230 228 198 178 165 151 132 125 127 127 116 81 72 159 52 108 68 59 76 76 72 72 73 65 60 43 27 27 31 31 27 26 24 19 17 17 14 8
192 193 194 202 220 221 205 186 170 164 156 147 135 121 115 97 73 46 336 263 188 136 73 56 61 68 69 71 57 59 51 27 32 27 13 5 359 6 11 15 11 15 29
190 197 204 215 216 208 195 180 170 160 153 151 145 135 122 104 77 52 43 83 174 191 9 13 16 54 57 57 55 65 38 29 20 356 344 342 336 349 358 4 15 14 14
194 202 210 216 211 200 187 175 170 163 159 169 175 168 164 145 101 38 39 52 324 268 317 334 338 351 5 52 57 21 8 352 356 6 357 348 350 346 359 7 7 15 12
197 208 212 211 203 191 183 175 168 169 176 183 188 195 197 210 218 255 311 10 18 11 352 329 305 269 267 244 281 313 343 343 348 2 0 0 323 331 333 343 351 3 6
202 209 207 204 194 186 183 177 176 183 183 187 195 213 235 239 244 241 257 274 308 331 338 346 279 299 311 248 258 302 329 348 348 338 343 351 347 323 333 343 330 348 357
204 204 205 194 190 186 184 177 181 187 188 193 219 227 234 258 240 227 235 262 288 312 317 320 312 264 279 295 286 293 311 324 327 325 340 348 347 332 322 331 308 325 338
202 204 195 190 184 187 183 186 190 191 199 211 220 228 237 239 246 246 231 247 274 290 301 306 304 296 273 271 279 285 293 303 310 308 325 331 343 332 325 321 323 325 327
201 199 193 189 184 182 181 182 188 198 207 222 202 172 189 220 226 240 254 262 274 284 292 300 305 307 286 275 276 282 279 292 314 305 304 314 328 329 322 318 318 321 323
195 196 196 191 187 191 186 187 197 194 201 201 202 213 229 241 241 249 260 265 268 277 282 291 301 307 299 283 296 297 290 304 301 296 292 299 310 313 316 312 313 314 317
202 201 197 189 187 188 186 194 195 193 206 225 242 257 264 267 268 267 268 272 276 279 282 289 296 300 293 278 288 291 300 291 292 305 287 291 301 304 310 313 316 318 322
197 197 187 184 186 184 189 195 205 213 229 246 257 268 271 272 273 269 272 277 279 284 286 285 285 285 278 271 276 286 293 289 300 289 286 295 301 309 316 319 320 322 323
188 185 178 177 177 189 205 220 236 246 256 271 278 275 279 275 264 261 262 268 277 279 279 279 275 278 279 279 281 286 284 296 292 283 289 296 303 310 321 319 313 315 319
187 175 174 181 192 204 216 225 239 250 265 274 275 273 270 271 265 268 268 271 275 276 280 280 274 272 275 277 285 285 283 272 281 290 296 295 300 316 325 318 310 308 313
183 177 182 194 206 214 228 231 242 264 284 275 276 277 263 253 287 281 277 277 274 279 278 278 272 273 279 288 284 277 273 285 296 301 291 289 303 318 324 318 310 305 307
184 186 197 202 212 223 235 241 252 260 279 272 284 270 256 270 293 270 270 271 274 270 273 282 283 290 295 293 282 274 282 292 309 302 294 294 305 316 319 316 310 304 302
189 197 211 222 233 243 249 254 253 265 268 278 281 267 256 271 269 269 276 270 265 276 280 277 288 301 303 294 275 272 287 303 305 300 298 299 306 313 314 310 304 303 303
192 195 202 223 239 244 243 242 256 270 274 271 268 270 272 263 270 285 276 277 285 274 269 286 299 300 305 287 271 277 283 284 288 292 293 298 307 312 310 306 303 301 301
187 184 198 235 233 244 235 235 244 265 286 289 274 265 265 291 297 297 293 293 285 268 285 301 305 307 298 279 280 282 276 282 285 289 294 302 307 309 309 309 303 299 298
186 189 216 214 212 223 232 239 265 304 313 293 270 278 291 301 305 301 293 290 277 283 299 307 310 305 298 296 288 282 285 288 291 294 300 303 303 305 306 309 306 297 296